[[{"header":{"parameterUnit":"m.s-1","parameterCategory":1,"la1":30.2991,"la2":30.254,"lo1":-89.0895,"lo2":-89.0444,"dy":0.0017,"dx":0.0017,"nx":28,"ny":28,"refTime":"2023-11-03T03:00:00:Z","depth":0,"parameterNumber":2,"parameterNumberName":"U-component_of_WINDS"},"data":[0,0,0,0,0,0,0,0,0,0,0,0,0,0,0,0,0,0,0,0,0,0,0,0,0,0,0,0,0,0,0,0,0,0,0,0,0,0,0,0,0,0,0,0,0,0,0,0,0,0,0,0,0,0,0,0,0,0,-3.2161,-3.2161,0,-3.2181,-3.2181,-3.2181,-3.2028,-3.2024,-3.2019,-3.2015,-3.2039,-3.2043,-3.2048,0,0,0,0,0,0,0,0,0,0,0,0,0,-3.1993,-3.1997,-3.2161,-3.2161,-3.2161,-3.2181,-3.2181,-3.2181,-3.2029,-3.2023,-3.2018,-3.2013,-3.2037,-3.2043,-3.2048,0,0,0,0,0,0,0,0,0,0,0,0,0,-3.2045,-3.1998,-3.2161,-3.2087,-3.2081,-3.2181,-3.2181,-3.2181,-3.203,-3.2023,-3.2017,-3.2011,-3.2036,-3.2042,-3.2049,-3.2221,0,0,-3.207,-3.2073,0,0,0,0,0,0,0,0,-3.2042,-3.2051,-3.2098,-3.2093,-3.2086,-3.2095,-3.213,-3.2195,-3.2031,-3.2049,-3.2015,-3.2008,-3.2063,-3.2067,-3.2085,-3.2222,-3.2223,-3.2071,-3.2075,-3.2078,-3.208,0,0,0,0,0,0,0,-3.2039,-3.205,-3.2169,-3.2099,-3.2091,-3.2054,-3.2054,-3.2142,-3.2092,-3.2047,-3.2036,-3.204,-3.2058,-3.2079,-3.2085,-3.2223,-3.2071,-3.2077,-3.2081,-3.2084,-3.2501,-3.2507,0,0,0,0,0,0,-3.2045,-3.2048,-3.2168,-3.2169,-3.2047,-3.2063,-3.2063,-3.2099,-3.2091,-3.2083,-3.2046,-3.2033,-3.207,-3.2077,-3.2085,-3.2284,-3.2078,-3.2085,-3.2089,-3.2494,-3.2502,-3.251,0,0,0,0,0,0,-3.2042,-3.2057,-3.2167,-3.2105,-3.2117,-3.2072,-3.2114,-3.2102,-3.2123,-3.209,-3.208,-3.2076,-3.2065,-3.2075,-3.2188,-3.2283,-3.2088,-3.2094,-3.2486,-3.2497,-3.2506,-3.2686,0,0,0,0,0,0,-3.2037,-3.2057,-3.2121,-3.2108,-3.212,-3.227,-3.212,-3.2107,-3.2135,-3.2118,-3.2115,-3.2109,-3.2061,-3.2178,-3.2195,-3.2289,-3.21,-3.2477,-3.2491,-3.2503,-3.2671,-3.2701,-3.2727,0,0,0,0,0,-3.2032,-3.2172,-3.2125,-3.2141,-3.22,-3.2275,-3.2283,-3.2224,-3.2143,-3.2208,-3.2186,-3.2109,-3.227,-3.2191,-3.2208,-3.2306,-3.2471,-3.2487,-3.2502,-3.2659,-3.2695,-3.2726,0,0,0,0,0,0,-3.2199,-3.2169,-3.2117,-3.2256,-3.227,-3.2249,-3.2329,-3.2265,-3.2302,-3.2285,-3.2212,-3.2213,-3.2338,-3.2333,-3.2245,-3.2472,-3.2356,-3.2376,-3.247,-3.2504,-3.2531,-3.253,-3.2105,0,0,0,0,0,-3.2252,-3.2315,-3.2285,-3.2412,-3.2421,-3.2374,-3.2405,-3.2359,-3.237,-3.2375,-3.2361,-3.2376,-3.2429,-3.2467,-3.2514,-3.267,-3.2667,-3.2746,-3.2774,-3.2797,-3.2814,-3.2895,-3.293,-3.2561,-3.2561,-3.256,0,0,-3.2362,-3.2353,-3.2398,-3.2445,-3.2449,-3.2517,-3.238,-3.2457,-3.2506,-3.2387,-3.2491,-3.2483,-3.2494,-3.2629,-3.2687,-3.2629,-3.2916,-3.2816,-3.2835,-3.284,-3.2915,-3.295,-3.2981,-3.2571,-3.2569,-3.2568,0,0,-3.2597,-3.2597,-3.2701,-3.2709,-3.2717,-3.2685,-3.271,-3.27,-3.2689,-3.2792,-3.2704,-3.2762,-3.2856,-3.2867,-3.2886,-3.3124,-3.3054,-3.3142,-3.3287,-3.3367,-3.3396,-3.3421,-3.3506,-3.3537,-3.316,-3.316,-3.3161,0,-3.2734,-3.283,-3.2764,-3.2847,-3.287,-3.2763,-3.2868,-3.2879,-3.2903,-3.2922,-3.2856,-3.2971,-3.2971,-3.3106,-3.3164,-3.3183,-3.3209,-3.3142,-3.3397,-3.3422,-3.3444,-3.3524,-3.3556,-3.3171,-3.317,-3.3169,-3.3168,0,-3.2997,-3.3066,-3.3149,-3.3174,-3.3206,-3.33,-3.3248,-3.329,-3.324,-3.3216,-3.3323,-3.3319,-3.3363,-3.3392,-3.3346,-3.3521,-3.3484,-3.3409,-3.3292,-3.3491,-3.3565,-3.3595,-3.3186,-3.3182,-3.3179,-3.3176,0,0,-3.3338,-3.3324,-3.3355,-3.3364,-3.3365,-3.3418,-3.3507,-3.3549,-3.3585,-3.3606,-3.3678,-3.376,-3.369,-3.3711,-3.3665,-3.3735,-3.3923,-3.365,-3.3649,-3.3701,-3.4116,-3.4172,-3.4208,-3.3877,-3.3882,-3.3887,-3.4114,0,-3.3567,-3.3717,-3.3659,-3.3814,-3.3876,-3.3775,-3.3853,-3.3862,-3.3842,-3.3892,-3.3869,-3.3928,-3.3831,-3.3843,-3.3908,-3.3887,-3.4005,-3.3869,-3.3944,-3.3948,-3.3944,-3.4247,-3.4307,-3.4522,-3.4143,-3.4148,-3.4151,0,-3.3854,-3.3884,-3.4045,-3.4033,-3.4057,-3.4128,-3.4161,-3.4211,-3.4219,-3.4199,-3.4222,-3.416,-3.4247,-3.4131,-3.4249,-3.4158,-3.4185,-3.418,-3.4186,-3.4191,-3.4061,-3.4259,-3.4589,-3.4621,-3.4196,-3.4192,-3.4189,0,-3.4085,-3.4166,-3.4272,-3.4284,-3.4274,-3.4325,-3.4324,-3.4326,-3.4355,-3.4384,-3.4402,-3.4443,-3.4465,-3.4498,-3.4449,-3.4368,-3.4575,-3.4454,-3.456,-3.4562,-3.4608,-3.4606,-3.4947,-3.4627,-3.4627,-3.4626,-3.4626,0,-3.4346,-3.4449,-3.4376,-3.4442,-3.4553,-3.4486,-3.4598,-3.4586,-3.4588,-3.465,-3.4566,-3.4626,-3.4557,-3.4611,-3.4573,-3.4677,-3.4688,-3.4674,-3.4663,-3.4681,-3.4683,-3.4698,-3.4681,-3.4635,-3.4633,-3.4631,-3.463,0,-3.4624,-3.458,-3.4689,-3.4669,-3.4667,-3.475,-3.4734,-3.4794,-3.4767,-3.4846,-3.486,-3.4819,-3.4877,-3.4831,-3.4889,-3.4863,-3.5,-3.4968,-3.4997,-3.4988,-3.5097,-3.5087,-3.5459,-3.5504,-3.5157,-3.516,-3.5163,0,-3.4793,-3.4869,-3.4858,-3.4892,-3.4895,-3.4952,-3.498,-3.4918,-3.4951,-3.4966,-3.5024,-3.5075,-3.5112,-3.5211,-3.5186,-3.523,-3.5198,-3.5325,-3.5204,-3.522,-3.5199,-3.5194,-3.5201,-3.5349,-3.5354,-3.5357,-3.536,0,-3.5098,-3.5071,-3.5115,-3.5151,-3.5187,-3.5213,-3.5232,-3.5266,-3.5201,-3.5243,-3.5301,-3.533,-3.5388,-3.544,-3.5475,-3.5474,-3.5407,-3.5398,-3.5425,-3.5444,-3.5457,-3.5451,-3.5064,-3.539,-3.5387,-3.5384,-3.5383,-3.5382,-3.5325,-3.5387,-3.5389,-3.544,-3.5448,-3.5467,-3.5522,-3.5501,-3.5548,-3.5589,-3.555,-3.562,-3.5626,-3.5665,-3.5673,-3.5727,-3.5674,-3.5714,-3.5723,-3.5734,-3.5749,-3.5449,-3.5733,-3.5732,-3.5731,-3.5731,-3.573,0,-3.5625,-3.562,-3.5668,-3.5696,-3.5737,-3.5669,-3.5686,-3.5725,-3.5787,-3.5798,-3.5836,-3.5902,-3.5952,-3.5931,-3.5974,-3.6022,-3.5992,-3.6035,-3.6031,-3.6032,-3.5794,-3.5766,-3.6059,-3.6059,-3.6058,-3.6058,-3.6058,-3.6058,-3.5785,-3.5886,-3.5861,-3.5965,-3.596,-3.6026,-3.6042,-3.606,-3.6068,-3.6146,-3.6186,-3.6171,-3.6169,-3.6212,-3.6254,-3.6247,-3.6267,-3.6321,-3.6303,-3.6081,-3.6049,-3.6018,-3.5991,-3.6326,-3.6326,-3.6536,-3.6538,-3.6539]},{"header":{"parameterUnit":"m.s-1","parameterCategory":1,"la1":30.2991,"la2":30.254,"lo1":-89.0895,"lo2":-89.0444,"dy":0.0017,"dx":0.0017,"nx":28,"ny":28,"refTime":"2023-11-03T03:00:00:Z","depth":0,"parameterNumber":3,"parameterNumberName":"V-component_of_WINDS"},"data":[0,0,0,0,0,0,0,0,0,0,0,0,0,0,0,0,0,0,0,0,0,0,0,0,0,0,0,0,0,0,0,0,0,0,0,0,0,0,0,0,0,0,0,0,0,0,0,0,0,0,0,0,0,0,0,0,0,0,-1.3284,-1.3284,0,-1.3322,-1.3323,-1.3323,-1.3377,-1.3378,-1.3379,-1.338,-1.3417,-1.3417,-1.3417,0,0,0,0,0,0,0,0,0,0,0,0,0,-1.3254,-1.3254,-1.3284,-1.3284,-1.3285,-1.3322,-1.3323,-1.3323,-1.3377,-1.3378,-1.338,-1.3381,-1.3417,-1.3417,-1.3417,0,0,0,0,0,0,0,0,0,0,0,0,0,-1.3277,-1.3254,-1.3284,-1.3316,-1.332,-1.3322,-1.3323,-1.3323,-1.3377,-1.3378,-1.338,-1.3381,-1.3417,-1.3417,-1.3417,-1.339,0,0,-1.3417,-1.3417,0,0,0,0,0,0,0,0,-1.3275,-1.3278,-1.3311,-1.3314,-1.3318,-1.3347,-1.3326,-1.3346,-1.3377,-1.3355,-1.338,-1.3382,-1.3392,-1.3394,-1.3398,-1.3391,-1.3393,-1.3417,-1.3417,-1.3417,-1.3417,0,0,0,0,0,0,0,-1.3274,-1.3277,-1.3299,-1.3311,-1.3316,-1.3328,-1.3333,-1.333,-1.3365,-1.3357,-1.3361,-1.3365,-1.3394,-1.3398,-1.34,-1.3393,-1.3417,-1.3417,-1.3417,-1.3418,-1.3364,-1.3363,0,0,0,0,0,0,-1.3268,-1.3275,-1.3298,-1.33,-1.33,-1.3327,-1.3333,-1.3336,-1.3365,-1.3371,-1.3364,-1.3367,-1.3397,-1.3399,-1.3401,-1.337,-1.3417,-1.3418,-1.3418,-1.3366,-1.3364,-1.3362,0,0,0,0,0,0,-1.3267,-1.3269,-1.3296,-1.3289,-1.3293,-1.3326,-1.3329,-1.3336,-1.334,-1.3371,-1.3377,-1.3362,-1.3398,-1.3401,-1.3392,-1.3372,-1.3418,-1.3418,-1.3367,-1.3365,-1.3363,-1.3307,0,0,0,0,0,0,-1.3266,-1.3269,-1.326,-1.3288,-1.3293,-1.3287,-1.3328,-1.3336,-1.334,-1.3345,-1.337,-1.3375,-1.34,-1.3391,-1.3392,-1.3373,-1.3418,-1.3369,-1.3366,-1.3364,-1.3311,-1.3303,-1.3297,0,0,0,0,0,-1.3265,-1.3242,-1.3259,-1.3261,-1.3283,-1.3286,-1.3289,-1.3318,-1.3339,-1.3329,-1.3348,-1.3375,-1.3374,-1.339,-1.3391,-1.3372,-1.3371,-1.3367,-1.3364,-1.3314,-1.3305,-1.3297,0,0,0,0,0,0,-1.321,-1.3247,-1.3265,-1.3252,-1.3265,-1.3295,-1.3284,-1.3308,-1.3315,-1.3319,-1.3354,-1.3359,-1.3345,-1.3358,-1.3375,-1.3346,-1.3376,-1.3373,-1.3338,-1.3329,-1.3322,-1.3319,-1.3418,0,0,0,0,0,-1.3196,-1.3197,-1.3229,-1.3213,-1.3219,-1.325,-1.3253,-1.3274,-1.3289,-1.3295,-1.3314,-1.3327,-1.333,-1.3331,-1.3335,-1.3314,-1.3319,-1.3301,-1.3294,-1.3288,-1.3284,-1.3271,-1.3263,-1.3351,-1.3351,-1.3351,0,0,-1.3168,-1.3188,-1.3186,-1.3203,-1.3216,-1.3214,-1.3255,-1.3252,-1.3251,-1.3295,-1.3287,-1.3301,-1.3318,-1.3302,-1.3296,-1.3312,-1.3261,-1.3283,-1.3278,-1.3278,-1.3267,-1.3259,-1.3251,-1.3349,-1.3349,-1.335,0,0,-1.3115,-1.3131,-1.3119,-1.3132,-1.3151,-1.3172,-1.3169,-1.3195,-1.3206,-1.32,-1.3232,-1.3231,-1.3235,-1.3245,-1.325,-1.3201,-1.3224,-1.3201,-1.3163,-1.3151,-1.3144,-1.3138,-1.3118,-1.3111,-1.3197,-1.3197,-1.3197,0,-1.3077,-1.3077,-1.311,-1.3105,-1.311,-1.3151,-1.3138,-1.3148,-1.3168,-1.317,-1.3188,-1.3193,-1.3208,-1.3194,-1.3181,-1.3185,-1.3182,-1.3198,-1.3142,-1.3137,-1.3132,-1.3113,-1.3106,-1.3194,-1.3195,-1.3195,-1.3195,0,-1.3028,-1.3028,-1.3016,-1.3034,-1.3038,-1.3029,-1.306,-1.306,-1.3081,-1.3099,-1.309,-1.3109,-1.3117,-1.3116,-1.3136,-1.3104,-1.3113,-1.3136,-1.3167,-1.3119,-1.3102,-1.3096,-1.319,-1.3191,-1.3192,-1.3193,0,0,-1.2941,-1.2978,-1.2972,-1.298,-1.3005,-1.3004,-1.2996,-1.3005,-1.3003,-1.3016,-1.3008,-1.3011,-1.3032,-1.3038,-1.306,-1.305,-1.3006,-1.3074,-1.3075,-1.3059,-1.297,-1.2951,-1.2942,-1.3023,-1.3022,-1.3021,-1.2968,0,-1.2892,-1.2881,-1.291,-1.2892,-1.289,-1.2929,-1.2922,-1.2935,-1.2951,-1.2952,-1.297,-1.2971,-1.3,-1.3004,-1.2995,-1.3013,-1.2989,-1.3018,-1.3015,-1.3014,-1.3007,-1.2934,-1.2914,-1.2863,-1.2962,-1.2961,-1.296,0,-1.2832,-1.2841,-1.2822,-1.2846,-1.2847,-1.284,-1.2849,-1.285,-1.2865,-1.2878,-1.2885,-1.291,-1.2903,-1.2934,-1.2923,-1.2942,-1.2943,-1.2951,-1.295,-1.2949,-1.2983,-1.2929,-1.2848,-1.2839,-1.295,-1.2951,-1.2952,0,-1.2768,-1.2775,-1.2765,-1.2771,-1.2799,-1.2793,-1.2804,-1.2821,-1.2824,-1.2832,-1.2834,-1.284,-1.2843,-1.2848,-1.2873,-1.2894,-1.2859,-1.2892,-1.2867,-1.2866,-1.2857,-1.2856,-1.2772,-1.286,-1.286,-1.286,-1.2861,0,-1.2708,-1.2695,-1.2736,-1.2729,-1.2715,-1.2748,-1.2733,-1.2748,-1.2762,-1.2758,-1.2792,-1.2787,-1.2822,-1.2821,-1.2841,-1.2828,-1.2829,-1.2838,-1.2843,-1.2834,-1.2833,-1.2833,-1.2837,-1.2859,-1.2859,-1.2859,-1.286,0,-1.2633,-1.2661,-1.2651,-1.2679,-1.2686,-1.2673,-1.2696,-1.269,-1.271,-1.2704,-1.2704,-1.2733,-1.2733,-1.276,-1.2766,-1.2779,-1.2756,-1.2769,-1.2751,-1.2754,-1.2727,-1.2728,-1.2639,-1.2628,-1.2724,-1.2723,-1.2723,0,-1.2593,-1.2583,-1.2609,-1.2609,-1.2619,-1.2619,-1.2622,-1.2654,-1.2655,-1.2671,-1.2663,-1.2666,-1.267,-1.2667,-1.2688,-1.2692,-1.2704,-1.2672,-1.2704,-1.2695,-1.2701,-1.27,-1.2698,-1.2665,-1.2663,-1.2662,-1.2662,0,-1.2516,-1.253,-1.2534,-1.2541,-1.2544,-1.2551,-1.2561,-1.2558,-1.2594,-1.2593,-1.2594,-1.2597,-1.2602,-1.2604,-1.2611,-1.2622,-1.2646,-1.2652,-1.2646,-1.2635,-1.2624,-1.2627,-1.273,-1.2653,-1.2654,-1.2655,-1.2655,-1.2655,-1.2456,-1.2449,-1.2466,-1.2468,-1.2478,-1.2486,-1.2482,-1.25,-1.2501,-1.2508,-1.2528,-1.2524,-1.2539,-1.2552,-1.256,-1.2557,-1.2572,-1.2564,-1.2562,-1.2559,-1.2553,-1.2626,-1.2559,-1.2559,-1.2559,-1.2559,-1.256,0,-1.238,-1.2393,-1.2394,-1.2407,-1.2408,-1.2433,-1.2444,-1.2443,-1.244,-1.2452,-1.2455,-1.2454,-1.2456,-1.2477,-1.2481,-1.2474,-1.2485,-1.2474,-1.2474,-1.2475,-1.254,-1.2544,-1.2464,-1.2464,-1.2464,-1.2464,-1.2465,-1.2465,-1.234,-1.2328,-1.2344,-1.2337,-1.235,-1.2348,-1.2352,-1.2359,-1.2368,-1.2366,-1.2368,-1.2382,-1.2397,-1.2402,-1.2404,-1.241,-1.2409,-1.2393,-1.2402,-1.2462,-1.2471,-1.248,-1.2483,-1.2393,-1.2393,-1.2338,-1.2337,-1.2337]}]]